TimePDT,TemperatureF,Dew PointF,Humidity,Sea Level PressureIn,VisibilityMPH,Wind Direction,Wind SpeedMPH,Gust SpeedMPH,PrecipitationIn,Events,Conditions,WindDirDegrees,DateUTC
12:15 AM,51.8,50.0,94,30.33,10.0,North,5.8,-,N/A,,Overcast,10,2011-10-31 07:15:00
12:35 AM,51.8,50.0,94,30.34,10.0,Calm,Calm,-,N/A,,Overcast,0,2011-10-31 07:35:00
12:55 AM,50.0,48.2,94,30.34,7.0,Calm,Calm,-,N/A,,Overcast,0,2011-10-31 07:55:00
1:15 AM,50.0,46.4,87,30.34,7.0,Calm,Calm,-,N/A,,Scattered Clouds,0,2011-10-31 08:15:00
1:35 AM,48.2,46.4,93,30.35,7.0,Calm,Calm,-,N/A,,Scattered Clouds,0,2011-10-31 08:35:00
1:55 AM,46.4,44.6,93,30.36,7.0,Calm,Calm,-,N/A,,Clear,0,2011-10-31 08:55:00
2:15 AM,46.4,46.4,100,30.36,10.0,Calm,Calm,-,N/A,,Clear,0,2011-10-31 09:15:00
2:35 AM,44.6,44.6,100,30.37,10.0,ENE,3.5,-,N/A,,Clear,70,2011-10-31 09:35:00
2:55 AM,44.6,44.6,100,30.37,10.0,Calm,Calm,-,N/A,,Scattered Clouds,0,2011-10-31 09:55:00
3:15 AM,44.6,44.6,100,30.37,10.0,Calm,Calm,-,N/A,,Scattered Clouds,0,2011-10-31 10:15:00
3:35 AM,44.6,44.6,100,30.37,10.0,Calm,Calm,-,N/A,,Scattered Clouds,0,2011-10-31 10:35:00
3:55 AM,44.6,44.6,100,30.37,10.0,Calm,Calm,-,N/A,,Clear,0,2011-10-31 10:55:00
4:15 AM,44.6,44.6,100,30.37,10.0,Calm,Calm,-,N/A,,Scattered Clouds,0,2011-10-31 11:15:00
4:55 AM,42.8,42.8,100,30.37,10.0,Calm,Calm,-,N/A,,Scattered Clouds,0,2011-10-31 11:55:00
5:15 AM,44.6,44.6,100,30.38,10.0,Calm,Calm,-,N/A,,Mostly Cloudy,0,2011-10-31 12:15:00
5:35 AM,44.6,42.8,93,30.38,10.0,Calm,Calm,-,N/A,,Scattered Clouds,0,2011-10-31 12:35:00
5:55 AM,42.8,42.8,100,30.39,7.0,Calm,Calm,-,N/A,,Clear,0,2011-10-31 12:55:00
6:15 AM,42.8,42.8,100,30.39,10.0,Calm,Calm,-,N/A,,Clear,0,2011-10-31 13:15:00
6:35 AM,42.8,41.0,93,30.40,10.0,Calm,Calm,-,N/A,,Clear,0,2011-10-31 13:35:00
6:55 AM,42.8,41.0,93,30.40,7.0,Calm,Calm,-,N/A,Rain,Light Rain,0,2011-10-31 13:55:00
7:15 AM,44.6,44.6,100,30.41,7.0,East,3.5,-,N/A,Rain,Light Rain,80,2011-10-31 14:15:00
7:35 AM,44.6,44.6,100,30.41,10.0,East,3.5,-,N/A,,Mostly Cloudy,100,2011-10-31 14:35:00
7:55 AM,42.8,41.0,93,30.41,10.0,ESE,3.5,-,0.01,,Clear,110,2011-10-31 14:55:00
8:15 AM,42.8,42.8,100,30.41,10.0,Calm,Calm,-,N/A,,Clear,0,2011-10-31 15:15:00
8:35 AM,42.8,42.8,100,30.42,10.0,Calm,Calm,-,N/A,,Scattered Clouds,0,2011-10-31 15:35:00
8:55 AM,44.6,44.6,100,30.43,7.0,East,9.2,-,N/A,Rain,Rain,100,2011-10-31 15:55:00
9:15 AM,46.4,44.6,93,30.43,10.0,East,3.5,-,N/A,,Overcast,100,2011-10-31 16:15:00
9:55 AM,50.0,48.2,94,30.44,10.0,East,3.5,-,0.01,,Clear,80,2011-10-31 16:55:00
10:15 AM,51.8,46.4,82,30.44,10.0,ENE,3.5,-,N/A,,Clear,60,2011-10-31 17:15:00
10:35 AM,51.8,46.4,82,30.45,10.0,ENE,3.5,-,N/A,,Clear,60,2011-10-31 17:35:00
10:55 AM,51.8,46.4,82,30.45,10.0,ENE,3.5,-,N/A,,Clear,60,2011-10-31 17:55:00
11:15 AM,53.6,46.4,77,30.45,10.0,Calm,Calm,-,N/A,,Scattered Clouds,0,2011-10-31 18:15:00
11:35 AM,51.8,46.4,82,30.46,10.0,NNW,4.6,-,N/A,,Mostly Cloudy,340,2011-10-31 18:35:00
11:55 AM,53.6,46.4,77,30.46,7.0,NNW,3.5,-,N/A,,Scattered Clouds,340,2011-10-31 18:55:00
12:15 PM,53.6,46.4,77,30.45,7.0,NNW,8.1,-,N/A,,Clear,340,2011-10-31 19:15:00
12:35 PM,53.6,46.4,77,30.45,10.0,North,6.9,-,N/A,,Scattered Clouds,10,2011-10-31 19:35:00
12:55 PM,55.4,46.4,72,30.45,10.0,NNW,8.1,-,N/A,,Scattered Clouds,330,2011-10-31 19:55:00
1:15 PM,55.4,44.6,67,30.45,10.0,NNW,11.5,16.1,N/A,,Clear,340,2011-10-31 20:15:00
1:35 PM,55.4,44.6,67,30.45,10.0,NNW,10.4,-,N/A,,Clear,340,2011-10-31 20:35:00
1:55 PM,55.4,44.6,67,30.45,10.0,NNW,15.0,-,N/A,,Clear,340,2011-10-31 20:55:00
2:15 PM,55.4,44.6,67,30.45,10.0,NNW,13.8,19.6,N/A,,Clear,340,2011-10-31 21:15:00
2:35 PM,53.6,44.6,72,30.45,10.0,North,12.7,20.7,N/A,,Clear,350,2011-10-31 21:35:00
2:55 PM,53.6,42.8,67,30.45,10.0,NNW,11.5,-,N/A,,Clear,340,2011-10-31 21:55:00
3:35 PM,53.6,42.8,67,30.45,10.0,NNW,16.1,-,N/A,,Scattered Clouds,340,2011-10-31 22:35:00
3:55 PM,51.8,44.6,76,30.45,10.0,North,10.4,-,N/A,,Mostly Cloudy,350,2011-10-31 22:55:00
4:15 PM,53.6,44.6,72,30.45,10.0,North,13.8,19.6,N/A,,Scattered Clouds,350,2011-10-31 23:15:00
4:35 PM,51.8,42.8,71,30.46,10.0,North,9.2,18.4,N/A,,Scattered Clouds,360,2011-10-31 23:35:00
4:55 PM,51.8,42.8,71,30.46,10.0,North,8.1,17.3,N/A,,Clear,10,2011-10-31 23:55:00
5:15 PM,51.8,42.8,71,30.47,10.0,North,10.4,-,N/A,,Clear,360,2011-11-01 00:15:00
5:35 PM,51.8,42.8,71,30.47,7.0,NNE,4.6,-,N/A,,Scattered Clouds,20,2011-11-01 00:35:00
5:55 PM,50.0,42.8,76,30.47,10.0,NNE,6.9,-,N/A,,Mostly Cloudy,30,2011-11-01 00:55:00
6:15 PM,50.0,42.8,76,30.47,7.0,NNE,6.9,-,N/A,,Mostly Cloudy,30,2011-11-01 01:15:00
6:35 PM,50.0,41.0,71,30.47,10.0,NNE,5.8,-,N/A,,Scattered Clouds,30,2011-11-01 01:35:00
7:15 PM,46.4,39.2,76,30.48,10.0,NNE,5.8,-,N/A,,Scattered Clouds,30,2011-11-01 02:15:00
7:35 PM,46.4,39.2,76,30.48,10.0,NNE,5.8,-,N/A,,Scattered Clouds,30,2011-11-01 02:35:00
7:55 PM,46.4,41.0,81,30.49,10.0,NE,5.8,-,N/A,,Clear,40,2011-11-01 02:55:00
8:15 PM,44.6,39.2,81,30.50,10.0,NNE,6.9,-,N/A,,Clear,30,2011-11-01 03:15:00
8:35 PM,44.6,39.2,81,30.50,10.0,ENE,4.6,-,N/A,,Clear,70,2011-11-01 03:35:00
8:55 PM,44.6,41.0,87,30.50,10.0,ENE,4.6,-,N/A,,Clear,70,2011-11-01 03:55:00
9:15 PM,42.8,39.2,87,30.50,10.0,ENE,5.8,-,N/A,,Clear,70,2011-11-01 04:15:00
9:35 PM,42.8,39.2,87,30.50,10.0,ENE,4.6,-,N/A,,Clear,60,2011-11-01 04:35:00
10:15 PM,44.6,41.0,87,30.51,10.0,East,6.9,-,N/A,,Scattered Clouds,80,2011-11-01 05:15:00
10:35 PM,44.6,41.0,87,30.52,7.0,East,5.8,-,N/A,,Overcast,90,2011-11-01 05:35:00
10:55 PM,42.8,39.2,87,30.52,7.0,East,5.8,-,N/A,,Scattered Clouds,80,2011-11-01 05:55:00
11:15 PM,42.8,39.2,87,30.52,10.0,East,6.9,-,N/A,,Clear,80,2011-11-01 06:15:00
11:35 PM,42.8,39.2,87,30.51,7.0,East,5.8,-,N/A,,Clear,90,2011-11-01 06:35:00
11:55 PM,41.0,37.4,87,30.51,7.0,ENE,3.5,-,N/A,,Clear,70,2011-11-01 06:55:00